This is the latest recevied weather packets stored in our database for station/object KI6SYE. If no packets are shown the sender has not sent any weather packets the latest 10 day(s).
| Time | Temp. | Humidity | Pressure | Rain* | Wind** | Luminosity | Snow |
|---|---|---|---|---|---|---|---|
| 1788022342 | 25.56° C | 82% | 1012.4 hPa | 0 mm | - | 505 W/m² | - |
| 1788022041 | 25.56° C | 82% | 1012.4 hPa | 0 mm | - | 489 W/m² | - |
| 1788021736 | 25.56° C | 82% | 1012.3 hPa | 0 mm | - | 512 W/m² | - |
| 1788021434 | 25.56° C | 82% | 1012.5 hPa | 0 mm | - | 469 W/m² | - |
| 1788021129 | 25.56° C | 82% | 1012.4 hPa | 0 mm | - | 459 W/m² | - |
| 1788020824 | 25.56° C | 82% | 1012.3 hPa | 0 mm | - | 429 W/m² | - |
| 1788020519 | 25.56° C | 82% | 1012.4 hPa | 0 mm | - | 414 W/m² | - |
| 1788020215 | 25.56° C | 82% | 1012.1 hPa | 0 mm | - | 156 W/m² | - |
| 1788019910 | 25.56° C | 82% | 1012.2 hPa | 0 mm | - | 347 W/m² | - |
| 1788019605 | 25.56° C | 82% | 1012.1 hPa | 0 mm | - | 388 W/m² | - |
| 1788019304 | 25.56° C | 82% | 1012.1 hPa | 0 mm | - | 290 W/m² | - |
| 1788019002 | 26.11° C | 80% | 1012.3 hPa | 0 mm | - | 342 W/m² | - |
| 1788018697 | 26.11° C | 80% | 1012.2 hPa | 0 mm | - | 344 W/m² | - |
| 1788018397 | 26.11° C | 81% | 1012 hPa | 0 mm | - | 316 W/m² | - |
| 1788018092 | 25.56° C | 81% | 1012.1 hPa | 0 mm | - | 283 W/m² | - |
| 1788017788 | 26.11° C | 82% | 1012 hPa | 0 mm | - | 257 W/m² | - |
| 1788017484 | 25° C | 83% | 1012 hPa | 0 mm | - | 238 W/m² | - |
| 1788017181 | 25° C | 84% | 1011.9 hPa | 0 mm | - | 222 W/m² | - |
| 1788016881 | 25° C | 85% | 1012.1 hPa | 0 mm | - | 206 W/m² | - |
| 1788016579 | 24.44° C | 85% | 1011.9 hPa | 0 mm | - | 190 W/m² | - |
| 1788016274 | 24.44° C | 86% | 1012.1 hPa | 0 mm | - | 171 W/m² | - |
| 1788015972 | 24.44° C | 87% | 1011.9 hPa | 0 mm | - | 159 W/m² | - |
| 1788015668 | 23.89° C | 87% | 1012.1 hPa | 0 mm | - | 144 W/m² | - |
| 1788015362 | 23.89° C | 87% | 1012 hPa | 0 mm | - | 133 W/m² | - |
| 1788015056 | 23.89° C | 87% | 1011.9 hPa | 0 mm | - | 124 W/m² | - |
* Rain latest hour (hover to see other rain measurements)
** Current wind speed in m/s (hover to see current wind gust speed)